Flag for USA

Past Weather in Salt Lake City, Utah, USA — Yesterday and Last 2 Weeks

Now
69 °F

Clear.


Feels Like: 69 °F
Forecast: 89 / 65 °F
Wind: 6 mph from Northwest

Location: Salt Lake City International Airport

Current Time: Jul 14, 2020 at 5:17:30 am

Latest Report: Jul 14, 2020 at 4:54 am


Visibility: 10 mi

Pressure: 29.80 "Hg (25.59 "Hg at 1312m altitude)

Humidity: 39%

Dew Point: 43 °F

Location of Salt Lake CityLocation

Past Weather in Salt Lake City — Graph

°F

Salt Lake City Temperature Yesterday

Maximum temperature yesterday: 91 °F (at 2:54 pm)
Minimum temperature yesterday: 71 °F (at 3:54 am)
Average temperature yesterday: 82 °F

High & Low Weather Summary for the Past Weeks

 TemperatureHumidityPressure
High97 °F (Jul 11, 2:54 pm)90% (Jun 29, 7:54 am)30.00 "Hg (Jun 29, 7:54 am)
Low46 °F (Jun 29, 3:54 am)9% (Jul 12, 5:54 pm)29.60 "Hg (Jul 1, 8:54 pm)
Average78 °F31%29.80 "Hg
* Reported Jun 29 3:54 am — Jul 14 3:54 am, Salt Lake City. Weather by CustomWeather, © 2020

Note: Actual official high and low records may vary slightly from our data, if they occured in-between our weather recording intervals... More about our weather records

Salt Lake City Weather History for the Previous 24 Hours

Scroll right to see more
 ConditionsComfort  
Time TempWeatherWind HumidityBarometerVisibility
3:54 am
Tue, Jul 14
70 °FClear.3 mph44%29.79 "Hg10 mi
2:54 am70 °FClear.No wind46%29.78 "Hg10 mi
1:54 am72 °FClear.6 mph40%29.77 "Hg10 mi
12:54 am72 °FClear.7 mph43%29.75 "Hg10 mi
11:54 pm
Mon, Jul 13
75 °FClear.9 mph39%29.74 "Hg10 mi
10:54 pm78 °FClear.15 mph35%29.72 "Hg10 mi
9:54 pm80 °FPassing clouds.8 mph20%29.68 "Hg10 mi
8:54 pm86 °FPassing clouds.6 mph14%29.66 "Hg10 mi
7:54 pm90 °FPassing clouds.6 mph11%29.65 "Hg10 mi
6:54 pm91 °FPassing clouds.12 mph10%29.66 "Hg10 mi
5:54 pm91 °FPassing clouds.13 mph12%29.68 "Hg10 mi
4:54 pm91 °FPassing clouds.13 mph12%29.70 "Hg10 mi
3:54 pm91 °FPassing clouds.9 mph13%29.72 "Hg10 mi
2:54 pm91 °FPassing clouds.14 mph14%29.74 "Hg10 mi
1:54 pm89 °FScattered clouds.15 mph18%29.76 "Hg10 mi
12:54 pm87 °FPartly sunny.N/A20%29.76 "Hg10 mi
11:54 am85 °FPartly sunny.7 mph23%29.77 "Hg10 mi
10:54 am83 °FScattered clouds.10 mph36%29.77 "Hg10 mi
9:54 am82 °FScattered clouds.9 mph29%29.76 "Hg10 mi
8:54 am78 °FPartly sunny.5 mph39%29.74 "Hg10 mi
7:54 am76 °FBroken clouds.8 mph36%29.72 "Hg10 mi
6:54 am72 °FPartly sunny.No wind35%29.70 "Hg10 mi
5:54 am71 °FPassing clouds.5 mph44%29.70 "Hg10 mi
Weather by CustomWeather, © 2020

See weather overview